Weather History for NW Arkansas Airport, AR

Change the Weather History Date:

Saturday, October 6, 2012

  Actual Average Record
Temperature  
Mean Temperature 42 °F -  
Max Temperature 48 °F - - ()
Min Temperature 37 °F - - ()
Degree Days  
Heating Degree Days 22    
Moisture  
Dew Point 37 °F    
Average Humidity 87    
Maximum Humidity 96    
Minimum Humidity 66    
Precipitation  
Precipitation 0.07 in - - ()
Sea Level Pressure  
Sea Level Pressure 30.27 in    
Wind  
Wind Speed 7 mph (NNE)    
Max Wind Speed 10 mph    
Max Gust Speed -    
Visibility 10 miles    
Events Rain    
T = Trace of Precipitation, MM = Missing Value Source: NWS Daily Summary

Daily Weather History Graph

Daily Weather History Graph

Search for Another Location

Airport:

Trip Planner

Search our weather history database for the weather conditions in past years. The results will help you decide how hot, cold, wet, or windy it might be!

Date:

Astronomy

Oct. 06, 2012 Rise Set
Actual Time 7:16 AM CDT 6:52 PM CDT
Civil Twilight 6:51 AM CDT 7:18 PM CDT
Nautical Twilight 6:21 AM CDT 7:48 PM CDT
Astronomical Twilight 5:51 AM CDT 8:18 PM CDT
Moon 11:16 PM CDT (10/6) 1:04 PM CDT (10/6)
Length of Visible Light 12h 27m
Length of Day
11h 35m
Waning Gibbous, 65% of the Moon is Illuminated
Oct 6
Waning Gibbous
Oct 8
Last Quarter
Oct 15
New
Oct 21
First Quarter
Oct 29
Full

Hourly Weather History & Observations

Time (CDT) Temp. Windchill Dew Point Humidity Pressure Visibility Wind Dir Wind Speed Gust Speed Precip Events Conditions
12:53 AM 39.0 °F 34.0 °F 37.0 °F 93% 30.24 in 10.0 mi NNE 6.9 mph - N/A   Clear
1:53 AM 39.0 °F 34.0 °F 37.0 °F 93% 30.25 in 10.0 mi NNE 6.9 mph - N/A   Clear
2:53 AM 37.9 °F 30.9 °F 36.0 °F 93% 30.25 in 10.0 mi North 10.4 mph - N/A   Clear
3:53 AM 37.9 °F 32.1 °F 36.0 °F 93% 30.24 in 10.0 mi NNE 8.1 mph - N/A   Clear
4:53 AM 37.0 °F 31.6 °F 35.1 °F 93% 30.26 in 10.0 mi NNE 6.9 mph - N/A   Clear
5:53 AM 37.0 °F 34.5 °F 36.0 °F 96% 30.26 in 10.0 mi NE 3.5 mph - N/A   Mostly Cloudy
6:53 AM 37.9 °F 34.4 °F 36.0 °F 93% 30.26 in 10.0 mi ENE 4.6 mph - N/A   Mostly Cloudy
7:53 AM 39.9 °F 33.9 °F 35.1 °F 83% 30.24 in 10.0 mi ENE 9.2 mph - 0.00 in   Overcast
9:53 AM 41.0 °F 37.1 °F 37.0 °F 86% 30.31 in 10.0 mi North 5.8 mph - 0.00 in   Overcast
10:53 AM 41.0 °F 38.0 °F 37.0 °F 86% 30.32 in 7.0 mi NNE 4.6 mph - 0.04 in Rain Light Rain
11:53 AM 43.0 °F 39.5 °F 37.9 °F 82% 30.30 in 10.0 mi NNE 5.8 mph - 0.01 in   Overcast
12:53 PM 45.0 °F 40.1 °F 37.9 °F 76% 30.30 in 10.0 mi North 9.2 mph - 0.00 in   Overcast
1:53 PM 48.0 °F - 37.0 °F 66% 30.28 in 10.0 mi NNE 9.2 mph - N/A   Overcast
2:53 PM 45.0 °F 41.8 °F 39.0 °F 80% 30.24 in 10.0 mi NE 5.8 mph - 0.01 in   Overcast
3:53 PM 44.1 °F 41.5 °F 39.0 °F 82% 30.25 in 10.0 mi NNE 4.6 mph - 0.00 in   Overcast
4:53 PM 45.0 °F 39.7 °F 37.9 °F 76% 30.25 in 10.0 mi North 10.4 mph - 0.00 in Rain Light Rain
5:53 PM 43.0 °F 37.7 °F 39.0 °F 86% 30.25 in 10.0 mi NNE 9.2 mph - 0.01 in Rain Light Rain
6:53 PM 39.9 °F 33.4 °F 36.0 °F 86% 30.27 in 10.0 mi NNE 10.4 mph - 0.00 in   Overcast
7:53 PM 39.9 °F 36.7 °F 36.0 °F 86% 30.29 in 10.0 mi NNE 4.6 mph - N/A   Overcast
8:53 PM 39.9 °F 37.8 °F 37.0 °F 89% 30.29 in 10.0 mi NNE 3.5 mph - N/A   Overcast
9:53 PM 39.9 °F 37.8 °F 37.0 °F 89% 30.30 in 10.0 mi NNE 3.5 mph - N/A   Overcast
10:53 PM 39.0 °F - 37.0 °F 93% 30.30 in 10.0 mi Calm Calm - N/A   Scattered Clouds
11:53 PM 39.0 °F - 37.0 °F 93% 30.30 in 10.0 mi Calm Calm - N/A   Overcast